Location: Lawrence
(38.9720°N, 95.2350°W)
Time: 20:27:43
(UTC-05:00)

JAS-1B - Visible Passes

Search period start: 19 April 2018 00:00
Search period end: 29 April 2018 00:00
Orbit: 911 x 1744 km, 99.1° (Epoch: 19 April)

Date Brightness Start Highest point End Pass type
(mag) Time Alt. Az. Time Alt. Az. Time Alt. Az.
19 Apr 8.6 00:32:47 26° NW 00:32:47 26° NW 00:35:40 10° NNW visible
19 Apr 7.8 22:59:42 36° NE 22:59:42 36° NE 23:03:54 10° N visible
20 Apr 8.9 00:51:55 19° WNW 00:51:55 19° WNW 00:54:09 10° NW visible
20 Apr 7.5 23:18:50 46° NNE 23:18:50 46° NNE 23:23:08 10° N visible
21 Apr 9.2 01:11:04 13° WNW 01:11:04 13° WNW 01:12:14 10° NW visible
21 Apr 7.5 23:37:59 52° N 23:37:59 52° N 23:42:13 10° NNW visible
22 Apr 8.7 22:04:53 14° ENE 22:05:27 15° ENE 22:08:27 10° NNE visible
22 Apr 7.7 23:57:07 47° NW 23:57:07 47° NW 00:01:12 10° NNW visible
23 Apr 8.3 22:24:02 21° ENE 22:24:10 21° ENE 22:28:21 10° NNE visible
24 Apr 8.1 00:16:16 36° NW 00:16:16 36° NW 00:20:01 10° NNW visible
24 Apr 7.9 22:43:10 30° ENE 22:43:10 30° ENE 22:47:53 10° N visible
25 Apr 8.5 00:35:25 26° WNW 00:35:25 26° WNW 00:38:40 10° NW visible
25 Apr 7.5 23:02:19 43° NE 23:02:19 43° NE 23:07:13 10° N visible
26 Apr 8.9 00:54:34 18° WNW 00:54:34 18° WNW 00:57:02 10° NW visible
26 Apr 7.2 23:21:27 58° NE 23:21:27 58° NE 23:26:24 10° N visible
27 Apr 9.2 01:13:41 12° WNW 01:13:41 12° WNW 01:14:50 10° WNW visible
27 Apr 8.9 21:48:21 10° ENE 21:49:53 11° NE 21:51:42 10° NE visible
27 Apr 7.1 23:40:36 64° NNW 23:40:36 64° NNW 23:45:28 10° NNW visible
28 Apr 8.5 22:07:29 16° ENE 22:08:33 17° ENE 22:12:09 10° NNE visible
